• In Czech Republic
  • List of Countries
  • For 7 days
  • Water Temperature
  • Satellite Maps
  • Weather Map
  • Weather Widgets
  • user-avatar
    Login

    Hourly Weather Bridgwater

    Today, 19 July, Thursday

    Time Temperature Precipitation Wind Pressure Humidity
    00:00 +14°C° 0 mm 2 mps 763 mmHg 89%
    01:00 +14°C° 0 mm 2 mps 763 mmHg 90%
    02:00 +14°C° 0 mm 1 mps 763 mmHg 90%
    03:00 +14°C° 0 mm 1 mps 763 mmHg 90%
    04:00 +15°C° 0 mm 1 mps 763 mmHg 88%
    05:00 +15°C° 0 mm 1 mps 763 mmHg 86%
    06:00 +16°C° 0 mm 1 mps 763 mmHg 84%
    07:00 +19°C° 0 mm 1 mps 763 mmHg 77%
    08:00 +20°C° 0 mm 1 mps 763 mmHg 71%
    09:00 +22°C° 0 mm 1 mps 763 mmHg 64%
    10:00 +23°C° 0 mm 1 mps 763 mmHg 61%
    11:00 +24°C° 0 mm 1 mps 763 mmHg 57%
    12:00 +25°C° 0 mm 1 mps 763 mmHg 54%
    13:00 +25°C° 0 mm 2 mps 763 mmHg 54%
    14:00 +25°C° 0 mm 2 mps 763 mmHg 54%
    15:00 +25°C° 0 mm 3 mps 763 mmHg 55%
    16:00 +24°C° 0 mm 3 mps 762 mmHg 57%
    17:00 +24°C° 0 mm 3 mps 762 mmHg 60%
    18:00 +22°C° 0 mm 3 mps 762 mmHg 63%
    19:00 +20°C° 0 mm 3 mps 762 mmHg 70%
    20:00 +18°C° 0 mm 3 mps 762 mmHg 77%
    21:00 +16°C° 0 mm 3 mps 762 mmHg 85%
    22:00 +16°C° 0 mm 3 mps 762 mmHg 86%
    23:00 +16°C° 0 mm 3 mps 762 mmHg 88%

    Tomorrow, 20 July, Friday

    Time Temperature Precipitation Wind Pressure Humidity
    00:00 +14°C° 0 mm 3 mps 762 mmHg 90%
    01:00 +14°C° 0 mm 3 mps 762 mmHg 90%
    02:00 +14°C° 0 mm 3 mps 762 mmHg 91%
    03:00 +13°C° 0 mm 3 mps 761 mmHg 91%
    04:00 +15°C° 0 mm 2 mps 761 mmHg 89%
    05:00 +15°C° 0 mm 2 mps 761 mmHg 87%
    06:00 +16°C° 0 mm 2 mps 761 mmHg 85%
    07:00 +17°C° 0 mm 2 mps 761 mmHg 77%
    08:00 +19°C° 0 mm 2 mps 761 mmHg 70%
    09:00 +21°C° 0 mm 2 mps 761 mmHg 62%
    10:00 +22°C° 0 mm 3 mps 761 mmHg 58%
    11:00 +24°C° 0 mm 3 mps 761 mmHg 55%
    12:00 +24°C° 0 mm 3 mps 761 mmHg 51%
    13:00 +23°C° 0 mm 4 mps 761 mmHg 52%
    14:00 +23°C° 0 mm 4 mps 760 mmHg 53%
    15:00 +23°C° 0 mm 5 mps 760 mmHg 54%
    16:00 +22°C° 0 mm 5 mps 760 mmHg 58%
    17:00 +22°C° 0 mm 5 mps 760 mmHg 62%
    18:00 +21°C° 0 mm 5 mps 760 mmHg 66%
    19:00 +20°C° 0 mm 4 mps 760 mmHg 72%
    20:00 +18°C° 0 mm 4 mps 760 mmHg 79%
    21:00 +17°C° 0 mm 3 mps 761 mmHg 85%
    22:00 +17°C° 0 mm 3 mps 760 mmHg 88%
    23:00 +16°C° 0 mm 3 mps 760 mmHg 91%

    Day after tomorrow, 21 July, Saturday

    Time Temperature Precipitation Wind Pressure Humidity
    00:00 +16°C° 0 mm 2 mps 760 mmHg 94%
    01:00 +16°C° 0 mm 2 mps 760 mmHg 94%
    02:00 +16°C° 0 mm 2 mps 760 mmHg 95%
    03:00 +16°C° 0 mm 2 mps 760 mmHg 95%
    04:00 +16°C° 0 mm 2 mps 760 mmHg 94%
    05:00 +17°C° 0 mm 2 mps 760 mmHg 93%
    06:00 +18°C° 0 mm 1 mps 760 mmHg 92%
    07:00 +18°C° 0.1 mm 2 mps 760 mmHg 87%
    08:00 +19°C° 0.1 mm 2 mps 761 mmHg 82%
    09:00 +21°C° 0.1 mm 2 mps 761 mmHg 77%
    10:00 +21°C° 0.1 mm 2 mps 761 mmHg 73%
    11:00 +23°C° 0.1 mm 2 mps 761 mmHg 70%
    12:00 +24°C° 0.1 mm 3 mps 761 mmHg 66%
    13:00 +25°C° 0.1 mm 3 mps 761 mmHg 64%
    14:00 +25°C° 0.1 mm 4 mps 761 mmHg 62%
    15:00 +25°C° 0.1 mm 4 mps 761 mmHg 60%
    16:00 +25°C° 0 mm 4 mps 761 mmHg 61%
    17:00 +23°C° 0 mm 4 mps 761 mmHg 62%
    18:00 +23°C° 0 mm 5 mps 761 mmHg 63%
    19:00 +21°C° 0 mm 4 mps 761 mmHg 70%
    20:00 +19°C° 0 mm 4 mps 761 mmHg 77%
    21:00 +17°C° 0 mm 4 mps 762 mmHg 83%
    22:00 +15°C° 0 mm 4 mps 762 mmHg 85%
    23:00 +14°C° 0 mm 3 mps 762 mmHg 88%

    22 July, Sunday

    Time Temperature Precipitation Wind Pressure Humidity
    00:00 +13°C° 0 mm 3 mps 762 mmHg 90%
    01:00 +13°C° 0 mm 3 mps 762 mmHg 91%
    02:00 +13°C° 0 mm 3 mps 762 mmHg 91%
    03:00 +14°C° 0 mm 2 mps 762 mmHg 92%
    04:00 +14°C° 0 mm 2 mps 762 mmHg 90%
    05:00 +15°C° 0 mm 2 mps 762 mmHg 88%
    06:00 +15°C° 0 mm 2 mps 762 mmHg 86%
    07:00 +17°C° 0 mm 2 mps 762 mmHg 77%
    08:00 +19°C° 0 mm 2 mps 762 mmHg 69%
    09:00 +21°C° 0 mm 2 mps 763 mmHg 61%
    10:00 +23°C° 0 mm 2 mps 763 mmHg 58%
    11:00 +24°C° 0 mm 2 mps 763 mmHg 55%
    12:00 +25°C° 0 mm 2 mps 763 mmHg 52%
    13:00 +26°C° 0 mm 3 mps 762 mmHg 53%
    14:00 +26°C° 0 mm 3 mps 762 mmHg 54%
    15:00 +26°C° 0 mm 4 mps 762 mmHg 55%
    16:00 +26°C° 0 mm 4 mps 762 mmHg 59%
    17:00 +25°C° 0 mm 4 mps 762 mmHg 62%
    18:00 +23°C° 0 mm 4 mps 762 mmHg 66%
    19:00 +22°C° 0 mm 3 mps 762 mmHg 74%
    20:00 +20°C° 0 mm 3 mps 762 mmHg 82%
    21:00 +18°C° 0 mm 3 mps 763 mmHg 91%
    22:00 +18°C° 0 mm 3 mps 763 mmHg 92%
    23:00 +17°C° 0 mm 2 mps 763 mmHg 93%

    23 July, Monday

    Time Temperature Precipitation Wind Pressure Humidity
    00:00 +17°C° 0 mm 2 mps 763 mmHg 95%
    01:00 +17°C° 0 mm 2 mps 762 mmHg 95%
    02:00 +16°C° 0 mm 2 mps 762 mmHg 95%
    03:00 +16°C° 0 mm 1 mps 762 mmHg 95%
    04:00 +18°C° 0 mm 1 mps 762 mmHg 94%
    05:00 +18°C° 0 mm 1 mps 762 mmHg 93%
    06:00 +19°C° 0 mm 1 mps 762 mmHg 92%
    07:00 +19°C° 0 mm 2 mps 762 mmHg 85%
    08:00 +21°C° 0 mm 2 mps 762 mmHg 78%
    09:00 +23°C° 0 mm 2 mps 762 mmHg 70%
    10:00 +24°C° 0 mm 3 mps 761 mmHg 68%
    11:00 +24°C° 0 mm 3 mps 761 mmHg 65%
    12:00 +25°C° 0 mm 3 mps 761 mmHg 63%
    13:00 +25°C° 0 mm 3 mps 761 mmHg 62%
    14:00 +25°C° 0 mm 3 mps 761 mmHg 62%
    15:00 +25°C° 0 mm 4 mps 760 mmHg 61%
    16:00 +25°C° 0 mm 4 mps 760 mmHg 64%
    17:00 +23°C° 0 mm 4 mps 760 mmHg 67%
    18:00 +22°C° 0 mm 4 mps 760 mmHg 69%
    19:00 +20°C° 0 mm 3 mps 760 mmHg 76%
    20:00 +19°C° 0 mm 3 mps 760 mmHg 82%
    21:00 +17°C° 0 mm 3 mps 760 mmHg 88%
    22:00 +17°C° 0 mm 3 mps 760 mmHg 90%
    23:00 +16°C° 0 mm 2 mps 760 mmHg 92%

    24 July, Tuesday

    Time Temperature Precipitation Wind Pressure Humidity
    00:00 +16°C° 0 mm 2 mps 760 mmHg 93%
    01:00 +15°C° 0 mm 2 mps 760 mmHg 94%
    02:00 +15°C° 0 mm 2 mps 759 mmHg 95%
    03:00 +15°C° 0 mm 2 mps 759 mmHg 95%
    04:00 +16°C° 0 mm 2 mps 759 mmHg 94%
    05:00 +16°C° 0 mm 2 mps 759 mmHg 92%
    06:00 +16°C° 0 mm 2 mps 759 mmHg 91%
    07:00 +18°C° 0 mm 2 mps 759 mmHg 83%
    08:00 +20°C° 0 mm 3 mps 760 mmHg 75%
    09:00 +22°C° 0 mm 3 mps 760 mmHg 67%
    10:00 +22°C° 0 mm 3 mps 760 mmHg 66%
    11:00 +24°C° 0 mm 3 mps 760 mmHg 65%
    12:00 +24°C° 0 mm 3 mps 760 mmHg 64%
    13:00 +24°C° 0.1 mm 3 mps 760 mmHg 66%
    14:00 +24°C° 0.1 mm 3 mps 760 mmHg 67%
    15:00 +23°C° 0.1 mm 4 mps 760 mmHg 69%
    16:00 +23°C° 0 mm 4 mps 760 mmHg 68%
    17:00 +22°C° 0 mm 4 mps 760 mmHg 68%
    18:00 +22°C° 0 mm 4 mps 760 mmHg 67%
    19:00 +20°C° 0 mm 4 mps 761 mmHg 74%
    20:00 +18°C° 0 mm 3 mps 761 mmHg 80%
    21:00 +16°C° 0 mm 3 mps 761 mmHg 87%
    22:00 +16°C° 0 mm 3 mps 761 mmHg 88%
    23:00 +14°C° 0 mm 3 mps 762 mmHg 89%
    Show more